Regional Weather Roundup
Issued by NWS

Home | Current Version | Previous Version | Graphics & Text | Print | Product List | Glossary On
Versions: 1 2 3 4 5 6 7 8 9 10 11 12 13 14 15 16 17 18 19 20 21 22 23 24 25 26 27 28 29 30 31 32 33 34 35 36 37 38 39 40 41 42 43 44 45 46 47 48 49 50
000
ASUS43 KMPX 211510
RWRMN
WEATHER ROUNDUP FOR MINNESOTA
NATIONAL WEATHER SERVICE TWIN CITIES/CHANHASSEN MN
1000 AM CDT THU AUG 21 2014


NOTE: "FAIR" INDICATES FEW OR NO CLOUDS BELOW 12,000 FEET WITH NO
SIGNIFICANT WEATHER AND/OR OBSTRUCTIONS TO VISIBILITY. N/A MEANS
CURRENT SKY AND/OR WEATHER CONDITIONS ARE NOT AVAILABLE.

MNZ060>063-068>070-211600-
   Twin Cities Metro

CITY           SKY/WX    TMP DP  RH WIND       PRES   REMARKS
TWIN CITIES    MOSUNNY   75  70  84 S8        29.77F
ST PAUL        MOSUNNY   74  69  85 SE14G20   29.78F
CRYSTAL        PTSUNNY   75  69  81 SE8       29.76F
BLAINE         CLOUDY    72  72 100 E5        29.78
LAKEVILLE      PTSUNNY   73  68  83 SE9       29.79R
EDEN PRAIRIE   MOSUNNY   76  70  82 S10       29.76F
SOUTH ST PAUL  MOSUNNY   73  69  87 SE6       29.78S
LAKE ELMO      FAIR      73  70  88 SE8       29.80F
$$
MNZ001>005-007-008-013>017-022>024-027-028-211600-
   Northwest Minnesota

CITY           SKY/WX    TMP DP  RH WIND       PRES   REMARKS
BEMIDJI        CLOUDY    64  61  90 SE9       29.85R
HALLOCK        MOSUNNY   72  66  83 SE9       29.77F
ROSEAU         CLOUDY    66  61  82 E8        29.84R
WARROAD        CLOUDY    63  61  94 SE9       29.85S
THIEF RVR FALL CLOUDY    66  64  94 SE9       29.81S
CROOKSTON      CLOUDY    72  66  83 SE8       29.79S
FOSSTON        CLOUDY    70  66  88 SE7       29.82S
DETROIT LAKES  CLOUDY    70  64  83 SE9       29.80F
MOORHEAD       CLOUDY    72  72 100 SE5       29.77S
PARK RAPIDS    CLOUDY    70  65  84 E7        29.81F
MAHNOMEN       CLOUDY    70  65  85 SE8       29.79F
$$
MNZ006-009>011-018-025>026-211600-
   North Central Minnesota

CITY           SKY/WX    TMP DP  RH WIND       PRES   REMARKS
BAUDETTE       CLOUDY    63  60  90 E12       29.85F
FLAG ISLAND    CLOUDY    64  61  88 SE7       29.85S
INTL FALLS     CLOUDY    63  59  87 SE13      29.89F
WASKISH        PTSUNNY   64  63  94 CALM      29.85R
BIG FORK       LGT RAIN  64  61  88 E5        29.88F
LONGVILLE      CLOUDY    64  63  94 NE6       29.82F
GRAND RAPIDS   CLOUDY    63  59  88 E3        29.87R
CRANE LAKE     CLOUDY    64  61  88 CALM      29.93R
ORR            CLOUDY    63  57  82 SE3       29.89R
COOK           CLOUDY    63  59  88 SE3       29.91R
WALKER         CLOUDY    64  63  94 E6        29.83S
$$
MNZ012-019>021-037-211600-
   Northeast Minnesota

CITY           SKY/WX    TMP DP  RH WIND       PRES   REMARKS
DULUTH         CLOUDY    62  60  93 E14       29.86F FOG
ELY            PTSUNNY   64  57  77 E9G16     29.91F
HIBBING        CLOUDY    65  59  81 E8        29.88S
EVELETH        CLOUDY    63  59  88 E5        29.90S
DULUTH HARBOR  CLOUDY    63  61  94 NE18      29.87F
TWO HARBORS    CLOUDY    63  57  82 E13       29.87F
SILVER BAY     FOG       59  59 100 NE9       29.91F VSB 1
GRAND MARAIS     N/A     61  59  93 E13       29.96R
G MARAIS ARPRT CLOUDY    61  55  82 SE7       29.99S
$$
MNZ029>031-032-039>041-046>048-054>057-064-211600-
   West Central Minnesota

CITY           SKY/WX    TMP DP  RH WIND       PRES   REMARKS
FERGUS FALLS   PTSUNNY   73  64  73 SE8       29.76S
WHEATON        CLOUDY    70  66  88 S9        29.76S
MORRIS         MOSUNNY   73  72  94 SE12      29.74S
ALEXANDRIA     CLOUDY    71  67  87 SE10      29.78S
ELBOW LAKE     CLOUDY    72  68  87 SE12      29.76S
WADENA         CLOUDY    68  64  88 E5        29.80S
APPLETON       PTSUNNY   75  70  83 S7        29.73F
BENSON         CLOUDY    73  70  88 S12       29.74S
ORTONVILLE     CLOUDY    73  66  78 S7        29.74S
MADISON        SUNNY     75  72  88 S7        29.74F
WILLMAR        PTSUNNY   75  70  83 SE12G17   29.76F
$$
MNZ033>034-036-042>043-049>051-058-059-211600-
   Central Minnesota

CITY           SKY/WX    TMP DP  RH WIND       PRES   REMARKS
ST CLOUD       CLOUDY    73  68  84 E10       29.77S
SAUK CENTRE    CLOUDY    72  68  86 SE8       29.77F
PAYNESVILLE    CLOUDY    71  67  88 E10G16    29.77S
AITKIN         CLOUDY    68  63  83 N5        29.81R
PINE RIVER     PTSUNNY   70  64  83 E6        29.85S
BRAINERD       CLOUDY    68  65  90 VRB3      29.81R
STAPLES        CLOUDY    70  64  83 CALM      29.80S
LONG PRAIRIE   CLOUDY    70  64  83 E9        29.78S
LITTLE FALLS   PTSUNNY   68  66  94 E6        29.78R
LITCHFIELD     PTSUNNY   75  72  88 SE9       29.77S
BUFFALO        CLOUDY    73  68  86 E7        29.78F
MAPLE LAKE     CLOUDY    73  70  88 E6        29.78S
$$
MNZ037-044-045-052-053-211600-
   East Central Minnesota

CITY           SKY/WX    TMP DP  RH WIND       PRES   REMARKS
PRINCETON      CLOUDY    73  70  88 SE8       29.79S
MORA           CLOUDY    64  64 100 E5        29.81F
CAMBRIDGE      PTSUNNY   73  64  73 E8        29.78S
RUSH CITY      CLOUDY    67  65  96 NE3       29.81F
MOOSE LAKE     CLOUDY    61  61 100 E5        29.81F
HINCKLEY       CLOUDY    64  64 100 E9        29.81F
CLOQUET        DRIZZLE   63  61  94 E9        29.85F
MCGREGOR       CLOUDY    63  61  94 CALM      29.85R
$$
MNZ071>073-080-081-089-090-097-098-211600-
   Southwest Minnesota

CITY           SKY/WX    TMP DP  RH WIND       PRES   REMARKS
MONTEVIDEO     CLOUDY    73  73 100 S9        29.75F
GRANITE FALLS  CLOUDY   N/A N/A N/A SE10      29.76S
CANBY          MOSUNNY   76  71  84 SE7       29.75S
MARSHALL       MOSUNNY   77  70  78 S9        29.74S
REDWOOD FALLS  CLOUDY    75  71  87 S12       29.75F
OLIVIA         CLOUDY    73  70  88 SE9       29.75S
PIPESTONE      MOSUNNY   79  73  83 SW7       29.77S
WINDOM         CLOUDY    75  70  83 S10       29.79S
WORTHINGTON    CLOUDY    77  18  10 SW6       29.79F
JACKSON        CLOUDY    77  70  78 S7        29.81S
TRACY          CLOUDY    78  73  85 S8        29.76S
SLAYTON        PTSUNNY   76  73  88 CALM      29.78F
$$
MNZ065>067-074>077-082>085-091>093-211600-
   South Central Minnesota

CITY           SKY/WX    TMP DP  RH WIND       PRES   REMARKS
MANKATO        PTSUNNY   75  68  78 S9        29.78F
NEW ULM        MOSUNNY   73  73 100 S8        29.78S
ST JAMES       PTSUNNY   77  70  78 SE13      29.78S
FAIRMONT       CLOUDY    73  66  78 MISG      29.80S
GLENCOE        CLOUDY    75  69  79 S5        29.77S
FARIBAULT      PTSUNNY   75  70  83 S8        29.80R
OWATONNA       PTSUNNY   75  70  83 S8        29.80S
WASECA         PTSUNNY   72  64  78 S13       29.81F
ALBERT LEA     CLOUDY    72  72 100 SE14      29.82F
$$
MNZ078>079-086>088-094>096-211600-
   Southeast Minnesota

CITY           SKY/WX    TMP DP  RH WIND       PRES   REMARKS
ROCHESTER      LGT RAIN  70  67  90 S14G25    29.81F
RED WING       CLOUDY    73  72  94 S9        29.79S
STANTON        PTSUNNY   76  68  77 S7        29.80R
DODGE CENTER   CLOUDY    72  70  94 S10       29.83R
WINONA         LGT RAIN  70  68  94 SE7       29.83F
AUSTIN         TSTM      70  70 100 S16       29.81R
PRESTON        LGT RAIN  67  67 100 SE17      29.84F
$$
ABBREVIATIONS USED IN REMARKS
   TC - TEMPERATURES IN CELSIUS
  WCI - WIND CHILL INDEX
   HX - HEAT INDEX
  VSB - VISIBILITY
$$


USA.gov is the U.S. government's official web portal to all federal, state and local government web resources and services.